Wind_Speed
98 99 99 99 99 101 103 105 106 105 104 102 99 96 94 92 90 88 87 86 86 87 88 89 91 92 93 93 93 94 95 96 97 97 97 98 97 97 95 94 93 94 96 98 101 102 103 103 103 103 102 100 98 98 95 91 87 83 78 71 65 61 61 61 59 61 72 80 82 83 87 92 98 105 113 118 119 123 129 132 137 142 145 145 145
98 97 97 98 100 102 104 105 104 102 100 97 94 92 90 89 87 86 85 85 86 87 88 90 91 92 93 93 93 94 94 95 96 96 97 97 97 96 95 94 94 95 97 99 101 102 101 101 101 100 99 97 94 93 90 87 83 79 75 70 65 62 61 60 60 62 70 79 83 84 88 92 95 100 108 114 118 121 125 129 133 139 143 145 147
95 96 98 100 101 102 101 100 99 97 96 93 91 90 89 87 86 86 86 86 86 88 89 90 92 92 92 93 93 94 95 95 95 96 96 96 96 95 94 94 95 96 98 100 101 101 100 99 98 97 95 93 90 88 86 84 80 75 73 70 65 62 61 59 58 61 69 79 84 85 88 90 91 95 102 108 115 120 123 125 131 135 140 145 148
94 96 99 100 100 98 97 96 95 94 92 91 90 89 88 88 87 87 87 87 88 89 90 91 92 92 92 93 94 94 94 95 95 96 96 96 95 94 93 94 96 97 99 100 101 100 99 98 96 94 91 89 87 85 83 81 78 73 70 68 64 62 61 58 57 61 69 78 83 84 86 88 89 92 96 101 110 118 120 122 128 133 137 142 147
95 96 97 98 97 96 94 93 92 92 91 90 88 88 88 88 88 88 88 88 89 90 90 91 92 92 93 93 94 94 94 95 96 96 96 95 93 92 93 95 97 98 99 100 100 99 98 96 94 89 85 85 83 81 80 78 75 71 67 66 63 61 59 57 57 62 69 76 82 83 84 85 86 90 92 95 105 115 117 119 124 129 132 138 145
95 96 96 96 96 94 93 92 91 90 90 89 88 88 88 89 89 89 89 88 89 90 90 91 91 92 93 94 94 94 95 96 96 96 95 93 91 91 93 95 97 99 100 101 100 98 97 94 91 84 79 80 79 77 77 75 72 69 66 63 61 59 57 56 57 62 68 74 80 82 82 83 85 87 89 93 102 111 114 117 122 126 129 135 143
96 96 97 97 96 94 93 91 90 90 90 89 89 89 89 89 89 89 88 88 89 90 91 91 92 92 93 94 94 94 96 96 96 95 93 90 89 90 92 95 98 100 101 101 99 97 95 93 89 81 75 75 75 73 72 70 68 67 64 60 58 57 56 56 57 61 66 72 76 78 80 82 85 87 88 91 99 107 111 114 119 124 128 134 142
97 97 98 98 97 95 94 92 91 91 90 89 89 89 89 89 89 88 88 88 89 90 91 91 92 93 93 94 94 95 96 96 95 93 90 88 88 89 92 95 98 100 101 100 98 95 92 89 87 80 73 71 71 69 67 66 64 64 61 58 56 55 55 55 57 60 65 69 72 75 77 80 83 85 87 90 96 104 108 112 118 122 126 133 142
99 100 100 100 98 96 94 93 92 92 91 90 89 89 89 89 88 87 87 89 90 91 92 92 92 93 93 94 95 96 96 95 93 90 87 86 87 88 91 94 97 99 98 97 97 94 87 84 82 79 72 68 67 65 63 62 61 61 59 56 53 53 54 55 57 60 64 66 70 73 75 78 81 83 85 88 93 101 106 111 117 118 121 131 140
102 102 102 101 99 97 95 93 93 92 91 90 89 88 88 87 86 87 88 90 91 91 92 92 92 92 93 94 95 95 94 92 90 87 86 86 86 88 91 95 97 98 97 97 97 91 83 79 77 75 71 66 63 62 59 57 57 58 56 53 52 52 53 54 57 60 62 64 67 71 74 78 81 83 85 86 91 99 105 111 115 114 116 126 137
104 104 104 103 101 98 96 95 93 92 90 88 87 87 86 86 86 88 89 90 91 92 93 93 92 92 93 94 94 93 92 89 87 86 85 85 86 88 91 94 97 96 95 97 96 87 80 76 74 71 69 64 61 59 57 54 53 55 54 51 50 51 52 54 56 58 60 63 66 70 73 77 80 83 84 85 91 99 106 112 115 113 114 123 135
106 106 105 104 102 99 97 95 93 91 89 87 86 86 85 86 87 89 90 91 92 93 93 93 93 93 93 93 92 91 89 87 86 85 85 85 85 88 92 94 95 94 93 96 94 83 76 74 71 69 66 63 59 57 54 52 51 52 52 50 49 50 52 54 55 57 59 62 66 69 73 76 79 83 84 86 92 101 107 112 113 112 115 122 132
108 107 106 104 102 100 97 95 91 89 87 86 85 85 86 87 88 89 90 91 92 93 94 94 93 93 92 91 91 89 87 87 87 86 85 85 85 87 91 93 93 91 92 94 91 79 72 71 69 66 64 60 57 55 52 49 49 50 51 49 48 49 52 53 55 57 59 62 65 69 73 76 80 83 85 88 95 102 107 110 110 110 114 121 129
109 108 106 104 101 99 97 94 91 88 87 86 86 86 87 88 88 89 90 92 93 94 94 94 94 93 91 90 89 88 87 87 87 87 85 85 85 87 90 91 90 89 90 91 85 75 70 69 66 63 61 58 56 53 49 47 48 49 49 49 48 48 51 53 54 57 59 62 65 69 73 78 81 84 86 91 97 102 106 107 107 108 112 118 127
110 109 107 104 101 99 97 94 91 89 88 87 88 88 88 88 88 90 92 93 93 94 94 94 93 92 90 88 87 87 88 88 88 88 87 86 86 87 88 88 87 88 89 88 81 71 67 66 63 60 59 57 55 51 47 45 47 48 48 48 48 48 51 53 55 58 60 63 66 69 73 79 82 84 88 92 97 101 104 105 105 107 110 116 125
110 109 107 105 102 100 97 95 93 91 89 89 89 88 88 87 88 91 93 94 94 94 94 94 93 91 89 87 86 86 88 89 89 88 88 87 87 88 86 84 84 85 86 83 77 69 66 64 60 58 56 56 54 51 45 42 46 48 47 47 47 47 50 54 56 58 62 65 68 70 74 79 82 85 89 93 97 100 103 104 105 106 110 116 124
110 109 107 105 103 101 99 97 95 93 91 90 89 89 87 87 89 92 94 95 96 95 95 93 91 89 87 85 85 86 88 89 89 89 88 88 89 88 83 80 80 81 81 78 74 69 65 62 58 55 54 54 53 49 44 41 45 48 46 45 46 47 50 54 56 59 63 67 69 72 76 80 82 84 87 91 96 100 102 104 105 107 110 115 122
110 109 107 106 104 103 101 100 98 95 93 91 90 89 89 90 92 95 96 98 98 96 93 90 89 87 85 84 84 86 88 90 90 90 89 89 90 88 81 76 76 76 75 74 71 67 63 60 56 52 52 53 51 48 43 41 43 46 44 43 45 48 51 55 57 60 64 68 70 73 76 79 80 82 85 90 95 98 100 103 105 108 110 114 119
109 108 108 107 106 105 104 102 100 97 94 92 91 91 91 93 96 97 99 99 97 93 90 88 87 86 85 85 85 86 88 90 92 91 90 90 91 86 78 73 71 70 70 69 69 66 62 58 53 50 50 51 50 46 42 40 42 44 43 42 45 49 52 55 57 60 64 67 70 72 75 78 79 80 83 88 93 97 99 102 105 107 109 112 116
109 109 108 108 107 106 106 104 101 98 96 94 94 94 94 96 97 98 99 98 94 91 88 87 86 85 85 85 85 86 89 91 92 91 91 92 91 85 76 70 66 65 65 66 66 64 60 56 51 47 48 49 48 44 42 40 42 43 42 43 47 51 52 54 57 61 64 66 69 73 75 77 78 79 82 87 93 97 100 103 104 105 107 111 116
110 110 109 108 108 107 107 106 104 102 100 98 97 96 96 96 97 98 98 97 94 90 88 86 85 84 84 84 84 87 89 91 92 91 91 93 91 84 75 68 63 61 60 61 64 63 59 54 50 46 46 47 45 42 41 41 42 43 43 45 48 51 52 54 58 61 63 66 70 73 76 77 78 79 83 89 94 98 101 102 103 104 108 112 117
112 111 110 110 109 109 109 108 107 106 104 102 100 98 97 97 98 98 98 96 93 90 88 87 86 85 84 84 85 87 89 90 91 90 90 92 89 82 75 68 63 59 56 56 61 62 56 51 48 45 45 45 42 40 40 41 42 43 43 44 47 49 51 54 58 60 62 65 69 73 75 76 78 81 86 91 96 100 101 101 102 105 109 113 118
113 113 112 111 110 110 110 110 109 108 107 105 103 101 99 98 98 98 97 94 92 90 88 88 87 86 84 84 86 89 90 90 90 89 90 90 86 80 75 69 64 58 54 53 58 60 55 49 46 44 44 43 40 39 40 41 42 42 41 43 46 48 50 54 58 59 62 65 68 71 74 75 78 83 88 93 97 100 101 101 102 106 110 115 120
114 114 113 112 111 112 111 110 110 109 108 106 104 102 101 100 99 98 96 93 91 89 89 88 87 86 84 84 87 90 90 89 89 88 89 88 83 78 75 71 65 59 53 51 55 57 53 48 45 43 42 41 39 38 39 41 41 40 40 43 45 47 51 55 58 60 62 65 68 71 73 75 79 84 89 94 98 100 100 101 103 107 112 117 121
117 116 114 113 113 112 111 110 109 108 107 105 104 103 102 101 100 99 96 93 91 90 90 89 88 87 85 85 87 90 89 88 87 88 89 88 83 79 76 72 66 60 53 49 51 54 51 47 43 41 40 39 37 37 38 39 39 39 40 42 45 48 52 55 58 59 61 64 69 71 73 76 81 85 90 95 98 98 99 100 104 109 114 118 122
116 116 114 114 113 112 111 110 109 107 106 105 104 103 102 102 101 99 97 95 93 92 90 89 88 88 86 85 87 89 89 87 87 88 89 87 82 78 75 71 67 63 56 50 49 50 48 45 42 39 38 37 36 37 38 38 38 38 39 42 45 48 52 54 57 58 60 63 67 69 72 77 82 86 90 93 95 96 97 100 105 110 115 119 121
114 113 113 114 113 111 110 109 108 106 105 105 103 102 102 101 101 100 99 97 95 93 92 90 89 88 87 85 86 87 89 88 87 87 88 85 79 76 73 69 67 64 60 55 51 47 45 44 40 37 37 37 36 36 37 37 37 37 39 42 45 48 51 53 54 56 59 62 65 68 73 78 82 85 88 91 95 97 97 101 106 110 114 118 121
110 111 112 112 111 109 108 107 106 105 104 103 102 101 100 100 100 100 100 98 96 95 94 93 91 89 87 85 84 86 89 90 88 87 86 81 75 72 69 66 64 63 59 57 53 47 42 41 39 36 36 36 35 35 36 35 36 37 39 42 45 48 50 52 53 55 58 62 66 69 73 77 80 83 87 91 95 98 98 102 107 109 111 115 119
108 109 110 109 108 107 107 106 104 103 102 101 100 99 99 100 100 101 100 99 98 98 97 95 93 90 87 85 83 84 87 89 88 88 85 77 70 68 65 61 60 59 56 55 53 47 41 39 37 34 35 35 34 35 35 34 35 37 39 41 44 47 49 51 53 56 59 62 66 70 74 77 79 83 87 91 95 98 100 104 108 111 113 116 119
107 108 109 109 108 106 105 103 102 100 99 98 97 98 99 100 102 102 102 100 100 99 98 95 93 90 87 84 82 82 85 86 86 87 84 76 69 67 64 59 57 56 52 51 51 47 41 38 35 33 35 35 34 34 34 33 34 36 39 41 44 46 48 50 52 55 58 61 64 68 73 76 79 82 86 90 94 98 101 105 110 115 117 118 118
107 108 108 108 106 105 103 101 99 97 96 96 96 97 99 101 103 104 104 103 102 100 97 95 92 89 86 83 80 81 83 85 85 85 81 72 67 66 64 59 57 55 49 47 48 45 40 37 35 33 34 35 34 33 33 32 33 36 39 41 44 46 48 50 52 55 58 61 63 67 70 74 78 82 86 90 94 97 101 104 108 112 115 117 117
105 106 106 106 105 104 102 99 97 96 95 96 96 98 99 101 103 104 105 105 104 102 99 95 92 88 85 82 80 80 82 84 85 83 77 69 65 65 63 59 57 56 50 45 45 43 38 36 34 33 34 35 34 33 33 32 33 36 39 42 44 46 48 50 52 55 58 61 64 67 70 74 78 82 86 90 93 96 98 101 104 109 113 115 115
102 103 104 105 105 104 102 100 99 98 97 97 98 100 102 103 103 104 104 104 103 102 100 97 93 89 86 83 80 80 81 83 83 81 75 67 65 66 63 56 53 54 51 45 42 40 37 34 33 34 35 35 34 33 33 32 33 36 40 43 45 47 48 50 53 55 58 61 64 67 71 76 79 83 87 90 92 94 96 98 102 108 113 115 113
101 102 103 104 105 105 104 103 102 101 101 101 102 103 105 105 105 105 105 103 101 99 97 95 93 90 86 83 80 80 81 83 83 80 73 66 65 66 63 55 49 49 49 46 41 38 35 33 33 34 35 35 34 33 33 33 34 37 40 44 47 48 49 51 53 55 57 60 63 67 72 77 81 86 89 90 91 93 95 98 102 107 111 114 113
103 104 104 105 105 105 105 105 105 105 105 105 106 107 108 108 107 107 106 104 101 99 96 93 91 89 86 83 82 82 82 83 82 78 70 64 62 64 62 55 47 45 45 44 41 37 34 32 33 34 35 35 34 33 34 33 34 38 41 45 48 50 51 52 54 56 57 60 63 66 70 76 81 87 90 91 92 94 95 98 102 105 109 113 114
105 106 106 106 106 106 106 107 107 108 108 108 109 110 111 110 109 108 106 103 101 99 97 94 91 88 84 82 81 82 83 82 80 75 68 62 60 62 61 56 49 45 43 41 39 36 33 31 32 34 35 35 33 33 34 34 36 39 43 46 48 51 52 53 55 56 57 59 62 65 70 75 81 87 90 91 94 96 97 99 103 104 106 111 114
108 109 108 108 107 108 108 109 110 110 110 110 112 112 111 111 109 107 105 103 101 99 98 96 94 89 84 80 79 81 82 81 78 73 67 61 58 57 57 54 49 45 42 40 38 35 32 30 32 34 35 34 33 33 34 35 37 40 43 47 49 52 53 55 56 57 58 60 63 67 72 77 83 88 91 93 96 98 100 102 104 105 106 109 113
110 110 110 109 110 110 112 113 113 113 112 113 113 113 112 111 109 107 105 103 101 99 98 97 95 91 86 82 80 80 80 80 77 71 65 61 58 54 53 51 47 43 41 39 37 34 31 30 31 34 35 34 33 34 35 36 38 41 44 48 51 53 55 56 57 58 60 62 66 70 75 80 85 89 93 95 99 102 103 105 106 108 109 110 112
111 111 111 111 113 114 115 116 116 115 115 115 115 114 113 111 109 107 105 103 101 100 99 97 94 91 88 85 82 80 79 77 75 71 66 62 59 55 52 49 46 42 40 39 37 34 31 30 31 33 34 33 33 34 36 37 39 42 46 49 52 54 56 57 58 59 62 65 70 74 79 83 87 91 94 98 102 105 107 108 109 111 112 111 110
111 112 113 114 115 116 117 118 118 117 116 116 115 114 113 112 110 108 106 103 102 101 99 96 92 89 87 85 83 80 78 75 73 70 66 62 59 55 51 48 45 42 39 38 36 33 30 30 31 33 34 33 33 35 36 38 41 44 47 50 53 55 57 58 59 61 64 69 74 78 82 86 90 93 97 102 106 108 109 110 111 111 110 109 107
112 113 114 115 116 117 118 118 118 117 116 115 114 114 114 112 110 108 106 104 103 101 98 94 91 88 86 84 82 79 77 74 71 68 65 61 58 54 51 47 43 41 39 37 36 33 30 30 32 33 33 33 34 35 38 40 42 45 48 52 54 56 58 59 61 63 67 72 77 81 85 89 93 96 100 105 109 109 110 111 112 111 109 108 107
113 114 115 116 117 118 119 118 117 115 115 114 114 114 114 112 110 108 106 105 103 101 97 93 89 87 85 82 80 78 75 72 69 66 62 59 56 53 49 46 42 40 38 37 36 34 31 30 32 34 34 33 34 36 39 41 44 47 50 53 56 58 59 60 62 66 70 74 79 84 88 92 96 99 103 108 111 111 112 113 113 112 110 110 109
115 116 117 117 118 118 118 117 116 115 114 115 115 114 113 112 110 108 107 106 103 100 95 91 88 85 83 80 78 76 74 71 67 64 60 57 54 51 47 44 41 39 37 36 36 34 31 31 33 34 34 34 35 38 40 43 45 48 52 55 57 60 61 62 64 68 72 77 82 87 92 96 99 101 105 109 111 113 115 116 116 113 111 110 109
116 117 117 118 118 117 116 116 115 115 115 116 115 114 113 112 110 109 108 106 102 97 93 88 85 82 80 79 77 75 72 69 66 62 58 55 52 48 45 43 40 37 36 36 36 35 32 31 33 35 35 35 37 39 42 44 47 50 53 56 59 61 62 63 65 69 74 79 85 90 95 99 101 102 105 109 112 115 118 119 117 115 113 111 110
116 117 117 117 116 115 115 115 115 115 116 116 115 114 113 112 111 109 107 104 99 94 89 86 82 80 78 77 75 73 70 67 63 60 56 53 50 46 43 41 38 36 36 36 37 35 33 32 34 36 36 37 38 41 44 46 48 51 55 58 60 62 64 65 67 71 76 82 87 93 98 101 102 103 106 109 112 117 121 120 118 116 115 112 110
115 115 115 114 113 113 113 114 115 115 116 115 115 114 113 112 110 108 105 100 95 90 86 83 80 78 76 75 73 71 68 65 62 57 54 51 49 45 42 39 37 35 35 36 37 36 34 33 35 37 38 38 40 43 45 47 50 53 56 59 62 64 65 67 69 73 78 83 89 95 99 101 103 105 108 110 115 121 125 123 119 117 116 114 111
113 113 112 112 112 112 113 113 114 115 115 114 113 112 111 109 107 105 101 96 91 87 83 80 78 76 74 73 71 69 66 63 60 55 51 49 48 44 40 38 36 35 34 35 37 37 36 34 36 38 39 40 42 44 47 49 51 55 58 61 63 65 66 68 72 76 80 85 90 95 99 102 104 107 111 114 119 125 128 126 121 119 117 115 112
111 110 110 110 110 110 111 112 112 112 111 111 110 108 107 106 103 99 95 90 86 83 81 78 76 74 73 71 68 66 64 61 57 53 49 48 47 43 39 36 36 35 35 35 37 38 37 36 37 39 41 42 43 46 49 51 53 56 59 62 63 65 67 70 74 79 83 88 92 95 98 102 105 109 114 119 123 128 130 128 123 120 118 115 113
108 108 107 107 107 108 108 109 108 108 107 106 105 104 103 101 97 93 89 86 83 81 78 76 74 73 71 68 65 63 61 59 54 51 48 47 45 42 38 35 35 35 35 35 36 38 38 38 38 40 43 44 45 48 50 52 55 58 61 63 65 67 69 72 76 81 85 89 93 96 99 103 107 112 118 123 126 129 131 128 124 121 119 117 114
105 104 104 104 104 104 104 104 103 103 103 102 101 100 97 94 90 87 85 82 80 78 76 75 73 71 68 65 62 60 58 55 51 49 47 45 43 40 37 35 34 35 35 35 36 38 39 39 40 42 44 46 47 49 52 54 56 59 62 64 66 68 71 74 78 82 86 90 94 97 102 106 111 117 122 126 128 130 130 128 124 121 119 117 116
101 101 101 101 101 101 100 100 100 99 98 97 96 94 91 88 85 83 81 80 78 77 75 74 72 68 65 62 59 57 55 52 49 46 45 44 41 39 36 34 33 34 35 35 36 38 40 41 41 43 45 47 49 51 54 56 58 61 64 66 68 70 73 76 79 83 87 91 95 100 104 109 114 120 125 127 129 129 129 126 123 121 119 117 117
Wind_Direction
293 293 294 295 295 296 296 296 297 297 298 298 298 298 298 298 298 298 298 299 300 300 301 302 302 303 303 303 303 303 303 304 303 303 303 302 300 299 297 295 294 292 291 291 290 290 290 290 291 290 290 289 288 287 286 285 284 283 282 279 274 268 262 252 241 239 244 241 236 233 230 227 225 222 220 219 219 220 221 220 221 221 220 219 218
293 293 293 294 295 296 296 297 297 298 298 298 298 297 297 297 297 297 298 299 300 301 302 303 304 304 305 304 304 304 304 305 304 304 303 302 301 299 298 296 295 293 293 292 291 291 292 292 292 292 291 290 288 287 286 285 283 282 280 277 274 268 262 253 242 237 240 239 234 232 230 227 225 223 221 219 219 220 220 220 220 220 219 218 217
293 294 294 295 296 297 297 297 298 298 298 297 296 296 296 296 297 297 298 298 300 302 303 304 305 306 306 305 305 305 305 305 305 305 304 303 301 300 299 297 295 294 294 294 294 294 294 294 294 293 292 291 289 287 285 284 283 281 279 276 272 268 262 253 243 237 237 237 233 230 230 227 225 223 222 220 219 220 220 219 220 220 219 217 215
294 295 295 296 297 298 299 299 298 298 297 296 295 295 296 297 297 297 297 298 300 302 304 305 306 306 306 306 306 306 306 306 306 306 305 303 302 301 299 298 297 296 296 296 296 296 296 296 295 295 293 290 288 286 285 283 282 280 278 275 271 267 261 252 242 236 235 234 232 229 228 227 224 223 222 219 219 220 220 219 219 220 218 216 215
295 296 297 298 299 300 300 300 299 297 296 296 296 296 296 297 297 297 298 299 301 303 305 306 307 306 306 306 306 306 307 307 307 307 306 304 303 302 300 299 298 298 298 298 298 298 297 296 295 294 292 289 286 285 283 282 281 280 277 274 270 265 260 252 242 237 234 232 230 228 227 226 224 223 222 219 218 219 220 219 219 220 218 216 214
296 297 298 300 301 301 301 300 299 298 297 296 296 296 296 297 297 298 298 300 302 304 306 307 307 307 307 307 307 308 308 308 308 307 306 305 304 303 301 300 300 300 299 299 299 298 297 296 295 294 290 287 285 284 282 281 281 280 277 273 269 264 258 251 243 238 234 232 229 226 225 224 222 221 220 218 217 218 219 218 218 219 218 216 214
298 299 300 301 302 302 301 301 300 299 298 297 297 297 297 297 297 298 300 302 304 306 307 307 307 307 307 308 308 309 309 309 309 308 307 306 305 304 302 301 301 301 300 301 300 299 299 298 297 295 290 287 285 283 281 281 280 278 276 273 268 263 257 250 243 238 235 232 229 226 224 222 220 219 218 217 216 217 217 217 218 217 216 214 214
300 301 302 302 302 302 301 301 301 300 299 298 298 297 297 297 298 299 302 304 306 307 307 307 307 308 308 309 309 310 310 310 309 308 307 307 305 304 303 303 302 302 302 302 301 300 300 300 297 295 291 287 285 283 281 280 279 277 275 272 267 261 255 249 243 238 234 231 228 225 222 220 219 219 218 216 216 216 216 216 217 217 214 213 213
302 302 303 302 302 302 301 301 301 300 300 299 298 297 298 298 299 301 304 307 307 307 307 307 308 308 309 310 311 311 311 310 309 308 308 307 306 304 303 303 303 302 302 302 300 300 301 299 296 294 291 288 285 283 281 280 278 276 273 270 265 259 254 248 242 237 233 229 226 223 220 218 218 218 217 216 215 215 215 216 217 217 214 212 212
303 303 303 302 302 302 301 301 301 300 300 299 298 298 298 299 302 304 307 308 308 307 307 308 308 309 310 311 311 311 310 310 309 309 309 308 306 304 304 303 302 302 302 302 301 302 302 298 295 293 291 289 286 284 281 279 276 274 271 268 263 257 252 246 240 236 231 227 224 221 218 217 216 216 215 214 213 214 214 215 216 217 215 212 212
302 303 303 303 302 301 301 301 301 300 299 298 298 299 300 302 304 307 308 308 308 307 308 308 309 311 312 312 312 311 310 310 309 310 309 308 306 304 304 304 303 303 303 302 302 303 302 298 295 293 291 290 287 284 281 278 274 272 269 265 260 254 249 243 238 234 230 225 222 219 216 215 214 214 213 211 211 212 213 214 215 216 214 212 211
302 303 303 302 302 301 301 301 300 299 299 298 299 301 302 304 306 308 308 308 308 308 308 309 310 312 312 313 312 311 311 310 310 310 310 309 307 304 304 304 304 304 304 302 302 304 302 297 294 293 291 289 287 284 281 277 273 269 266 262 256 251 246 241 236 232 227 223 220 216 214 212 212 212 211 209 209 211 212 213 215 215 213 211 211
302 302 302 302 301 301 301 300 300 299 299 300 301 303 304 306 307 308 309 308 308 309 309 310 311 312 313 313 312 311 311 311 311 311 310 309 307 305 304 304 304 305 305 303 302 303 301 296 294 293 291 289 286 283 280 276 272 267 264 260 253 247 243 239 233 229 225 221 218 214 212 211 211 210 209 208 208 210 211 213 214 214 213 211 210
301 301 301 301 301 301 301 301 300 300 301 302 303 304 306 307 308 309 309 309 309 309 310 311 312 313 313 313 312 312 312 312 312 312 311 309 308 306 305 305 306 307 306 303 302 302 299 296 294 293 291 288 285 282 279 275 271 266 262 257 250 244 240 236 231 226 222 219 216 213 211 210 210 210 209 208 208 209 211 213 214 213 212 211 210
300 300 300 300 301 301 301 301 301 302 302 304 305 306 307 308 309 310 310 310 310 310 310 311 312 313 313 313 313 313 313 313 313 313 312 310 308 307 306 307 308 309 306 303 302 301 298 296 295 293 290 287 284 281 278 274 270 265 259 254 247 240 237 233 228 224 221 217 215 213 211 211 211 209 208 208 208 209 210 212 214 213 211 210 209
299 299 300 301 301 302 302 302 302 303 303 304 306 307 308 309 310 310 310 310 310 310 311 312 312 313 312 312 313 314 314 314 314 314 312 310 309 308 307 309 311 311 306 303 301 300 298 296 295 293 290 287 283 280 277 272 267 263 257 252 245 238 234 231 227 223 220 217 214 211 211 211 211 209 208 208 208 208 209 211 212 212 211 209 208
298 299 300 301 301 301 302 302 303 303 304 305 307 308 309 310 310 311 311 311 311 311 312 312 312 312 312 313 314 315 315 315 315 314 313 310 309 308 308 311 313 310 305 302 301 300 298 297 295 292 289 286 282 279 276 271 265 261 256 249 243 236 231 229 225 221 219 217 213 211 211 212 212 210 208 207 207 207 208 209 211 211 210 209 208
298 299 300 300 301 301 302 302 302 303 304 306 308 309 310 311 311 312 312 311 311 311 312 312 312 312 313 313 315 316 316 316 316 315 313 311 309 308 310 312 313 309 304 302 300 299 298 297 294 292 288 284 280 277 275 269 263 258 253 246 240 234 230 227 224 221 219 218 214 212 211 212 212 210 208 207 207 207 207 208 209 210 210 209 208
298 299 299 300 300 301 302 302 302 303 305 307 309 310 311 312 312 312 311 310 310 311 312 313 313 313 313 314 316 316 317 318 317 316 314 311 309 308 310 313 313 308 303 302 300 298 298 296 294 291 286 281 278 276 274 268 261 255 249 242 237 233 229 226 224 221 220 218 216 214 213 213 212 210 207 206 206 206 206 207 209 209 209 208 207
298 298 299 299 300 300 301 302 303 305 306 308 309 311 311 311 311 311 310 309 310 312 313 313 312 313 314 315 316 317 318 319 318 317 314 311 309 309 311 312 311 307 304 302 300 298 298 296 294 289 283 279 277 276 272 265 258 252 245 238 234 231 228 225 223 222 219 217 216 215 213 213 211 209 206 205 205 205 205 207 208 208 208 207 205
297 298 298 299 300 300 301 303 304 306 307 308 309 310 310 310 310 310 309 310 311 312 312 312 312 313 314 315 317 317 318 319 318 317 315 312 310 310 311 311 308 305 305 303 300 298 298 297 294 288 281 277 276 274 270 263 255 249 242 237 234 231 228 225 224 222 220 218 217 215 214 212 210 207 205 204 204 204 205 207 207 207 206 205 204
297 297 298 299 300 301 302 303 304 306 307 308 308 309 309 310 310 309 309 310 311 311 311 312 313 313 315 316 317 318 319 319 317 316 315 312 311 311 311 310 307 305 305 305 300 297 297 297 293 286 280 277 275 272 267 260 253 247 241 237 234 231 227 225 224 223 221 219 218 216 215 212 208 205 204 204 204 204 205 206 205 205 204 203 203
296 296 297 298 299 301 302 303 304 305 306 307 308 308 309 309 308 308 308 309 310 310 311 312 313 314 315 317 318 318 319 318 317 315 314 312 312 312 312 310 307 306 306 305 300 297 297 296 291 285 280 277 274 270 264 258 252 247 241 236 233 230 226 224 224 222 220 219 218 217 215 212 208 205 204 204 204 204 205 204 204 203 202 202 202
295 296 297 299 300 300 301 302 303 304 305 306 307 307 308 308 307 307 308 309 310 311 311 312 313 314 316 318 318 318 318 317 316 315 314 313 313 314 313 311 308 306 306 305 300 297 297 295 290 284 280 277 273 268 262 256 251 245 239 234 231 227 225 223 223 222 220 218 217 216 214 211 208 206 204 204 204 204 203 203 202 201 201 201 201
295 296 297 298 299 299 300 301 302 303 304 305 305 306 307 307 307 307 308 309 310 311 311 312 313 314 316 318 318 317 317 317 315 315 315 314 315 315 313 311 308 306 305 304 300 297 296 293 288 283 279 276 272 266 259 254 249 242 237 232 229 225 223 222 222 222 220 218 216 214 212 210 207 206 205 205 205 205 203 202 201 200 200 200 201
293 295 296 297 297 298 299 300 301 302 303 304 305 305 306 306 306 307 308 309 310 310 311 312 314 315 316 317 317 316 316 316 316 316 316 314 315 315 313 311 310 307 305 304 300 297 295 291 287 282 279 275 270 264 258 252 246 240 235 231 228 225 223 221 220 219 218 217 216 213 211 209 207 206 205 206 206 206 204 202 200 199 199 200 201
292 294 294 295 295 297 298 299 300 302 302 303 304 304 305 305 306 307 308 308 309 311 312 313 314 315 316 317 317 316 316 317 317 316 314 313 315 315 313 312 311 308 305 303 300 296 293 289 284 281 278 274 268 261 256 250 244 238 233 230 227 225 222 221 220 217 214 214 214 212 210 209 208 207 206 205 206 206 204 202 200 199 199 200 200
291 292 292 293 294 295 297 298 300 301 301 302 303 303 304 305 305 306 307 308 309 311 312 313 314 315 316 317 316 316 316 317 317 315 312 312 314 313 311 311 309 306 303 301 298 295 292 286 282 279 276 271 265 259 253 248 242 236 231 228 225 224 222 219 217 215 212 211 211 210 209 209 208 207 206 205 205 205 204 202 200 198 199 201 201
290 290 291 292 293 295 296 298 299 300 301 301 302 303 303 304 305 305 306 308 309 310 311 312 313 314 315 316 316 315 315 316 316 314 311 311 313 311 309 308 307 303 300 299 296 294 291 285 280 278 274 268 262 257 251 245 240 235 231 227 224 222 221 219 215 213 211 210 209 208 208 208 208 206 205 205 205 205 204 202 199 197 199 202 203
289 290 290 291 293 294 295 297 298 299 300 300 301 302 303 304 304 305 306 307 309 310 311 312 313 314 315 316 315 314 313 314 315 313 310 311 313 311 308 308 305 301 298 296 294 292 290 284 279 275 271 266 260 255 249 243 238 233 230 227 223 221 220 219 216 213 210 209 209 207 207 207 207 207 206 205 204 205 204 203 201 200 201 203 204
289 290 290 291 292 294 295 296 297 298 299 300 301 301 302 303 303 304 305 307 308 309 310 311 313 314 315 315 315 313 313 313 313 311 309 311 313 311 309 309 307 301 297 295 292 290 288 283 278 273 268 263 258 252 247 241 236 232 229 225 222 220 219 218 217 214 210 207 207 207 207 206 206 206 206 205 205 205 205 204 204 203 204 204 203
288 289 290 291 293 294 295 296 297 298 298 299 300 301 301 302 302 303 304 305 307 308 310 311 312 314 314 315 314 314 313 313 311 309 309 311 313 310 309 309 307 301 297 294 291 289 286 281 276 271 265 260 255 250 245 239 234 230 227 225 221 219 218 218 217 215 211 207 205 205 205 206 206 205 205 205 205 206 206 205 204 203 203 203 202
287 288 290 291 293 294 295 296 297 298 299 300 300 301 301 301 302 302 304 305 306 308 309 311 312 313 314 314 314 314 313 312 310 308 309 313 314 310 307 307 305 300 296 293 290 288 285 279 273 268 262 257 252 248 243 237 233 228 225 223 221 218 218 218 217 215 212 209 204 202 202 203 204 204 205 206 206 206 206 205 203 203 202 202 201
287 289 290 291 293 294 296 297 298 299 299 300 300 301 301 301 302 303 304 305 306 308 309 310 312 313 314 314 315 314 313 311 309 308 309 313 313 309 305 304 301 297 295 292 290 287 283 277 271 265 260 254 250 245 241 235 231 227 223 221 219 217 216 216 216 214 211 209 206 202 201 201 202 203 204 205 206 206 206 205 203 202 202 201 200
288 289 290 291 292 294 295 296 297 298 299 299 300 300 301 302 303 303 304 305 307 308 309 311 312 313 314 315 315 315 313 310 308 306 308 312 311 307 304 302 299 295 292 290 289 286 281 275 269 262 257 252 247 243 239 233 228 225 221 218 218 217 215 215 214 212 210 208 206 203 201 201 201 202 203 204 204 205 205 203 202 201 201 200 200
288 289 290 291 292 293 294 295 296 297 298 298 299 299 300 301 302 303 304 305 307 308 309 311 312 312 313 314 314 313 311 308 306 306 309 312 311 308 305 303 300 296 291 288 287 284 278 272 266 260 255 250 244 240 237 232 227 223 219 216 215 216 215 213 212 210 207 206 204 202 201 201 201 201 202 202 202 203 203 201 200 200 200 200 199
288 288 289 290 292 293 293 294 295 295 296 297 298 298 300 301 302 303 304 305 306 308 310 311 311 312 312 313 314 312 309 307 305 306 309 311 309 305 302 301 298 294 291 287 284 281 276 269 263 257 252 247 242 237 234 230 225 221 217 215 213 214 213 212 209 207 204 202 201 199 199 200 200 200 201 200 200 200 200 200 199 199 200 200 199
286 287 289 290 291 292 293 293 294 295 296 296 297 298 300 301 302 303 304 305 306 308 309 310 310 311 312 314 313 311 308 305 305 306 309 310 307 303 300 299 296 292 289 285 282 278 273 266 259 253 249 244 239 235 232 228 224 219 215 213 212 211 211 209 207 204 201 199 197 197 197 199 199 200 199 199 198 198 199 198 198 198 199 200 200
284 286 287 289 290 291 291 292 293 294 295 296 297 298 299 300 301 303 304 305 306 308 308 309 310 311 312 313 312 309 306 304 305 307 310 310 307 304 301 298 295 291 287 284 280 276 270 262 255 250 245 241 236 232 229 226 223 218 213 211 210 209 208 207 204 201 199 196 194 195 196 197 198 199 198 197 197 197 198 198 198 198 200 201 200
283 284 286 287 288 289 290 291 292 293 294 295 297 298 299 300 301 302 303 305 306 307 307 308 309 310 312 312 311 307 305 304 305 307 309 309 306 302 299 296 292 289 285 281 278 273 267 259 251 246 241 237 233 229 226 223 221 216 212 209 208 207 206 204 201 199 197 195 193 193 195 196 197 198 197 197 197 198 198 198 198 199 200 200 198
282 283 285 286 287 287 288 289 291 292 293 295 296 297 298 298 300 301 303 304 305 306 306 307 308 310 311 310 308 305 304 304 305 306 308 306 303 300 297 294 290 286 282 279 275 270 263 255 248 242 237 233 229 226 223 221 218 215 210 207 206 205 203 201 199 197 196 194 192 192 194 195 196 197 196 196 197 198 197 197 197 198 199 198 197
282 283 284 285 285 286 287 288 290 291 293 294 295 295 296 298 299 301 303 304 304 304 305 307 308 309 309 308 305 303 303 303 304 306 306 304 300 297 294 292 288 284 279 275 272 267 260 252 244 239 234 229 226 223 221 218 216 212 209 205 204 202 201 200 198 196 195 193 192 192 193 194 195 196 196 196 197 198 197 195 195 196 197 197 196
282 283 283 284 284 285 287 288 290 291 292 293 294 294 296 297 299 301 302 302 302 303 305 306 308 308 307 305 303 302 302 303 304 305 304 301 298 295 292 289 285 280 275 272 268 264 257 248 241 236 231 226 223 220 218 216 214 211 207 204 202 201 199 198 197 196 194 193 192 191 192 194 195 196 196 197 197 197 196 195 195 196 196 196 196
281 281 282 283 284 285 287 288 290 291 291 292 293 294 296 297 299 300 300 301 301 303 304 306 307 306 304 302 301 301 302 303 303 303 301 299 295 292 290 286 282 277 272 268 264 260 254 245 238 233 228 223 220 218 215 213 211 209 206 203 201 199 197 196 196 195 194 192 192 191 192 194 195 195 196 197 197 196 196 195 195 196 196 196 196
279 280 281 282 283 285 287 288 289 289 290 291 292 294 296 297 298 298 299 299 301 302 304 305 305 303 301 301 300 301 302 303 302 301 299 296 293 291 288 284 279 274 268 264 260 257 250 242 235 230 226 221 218 215 213 211 209 207 205 203 200 198 196 194 194 195 194 192 191 192 193 194 195 195 195 196 196 195 195 196 196 196 196 196 196
277 279 280 282 283 285 286 286 287 288 289 290 292 293 294 295 296 297 297 299 301 302 303 303 302 301 300 300 300 301 302 302 300 299 297 294 292 289 286 281 276 270 264 260 257 253 247 239 232 228 224 220 216 214 211 210 207 206 204 203 200 197 195 193 193 193 193 192 192 193 194 194 194 194 195 195 194 194 195 196 196 196 196 196 196
277 279 280 282 283 284 285 285 286 287 289 290 291 292 293 294 295 296 297 299 300 301 301 301 300 299 299 299 300 301 301 300 298 297 295 292 290 288 284 278 273 267 261 256 253 250 245 237 230 225 222 218 215 212 210 208 206 205 204 202 200 197 195 193 192 192 193 193 193 194 194 194 194 194 194 194 193 194 195 196 197 197 197 196 197
278 279 280 281 282 283 283 284 285 286 288 289 290 291 292 293 294 295 297 298 299 300 299 298 298 298 298 298 300 301 300 298 296 295 293 290 288 286 281 276 270 264 258 252 249 247 243 236 228 223 220 217 214 211 209 206 205 204 203 202 200 197 195 193 192 192 192 193 194 195 195 195 194 194 194 193 193 193 195 196 197 198 198 198 199
278 279 280 280 281 281 282 283 285 286 287 289 290 290 291 292 294 295 297 298 298 298 297 297 297 297 297 299 300 299 297 295 294 293 291 288 286 283 279 273 267 261 255 249 245 243 241 235 227 221 218 216 213 211 208 205 204 203 202 202 199 197 195 194 193 192 193 194 194 195 195 195 194 193 193 193 193 193 194 196 197 198 199 200 201
278 279 279 280 281 281 282 284 285 286 287 288 289 289 291 292 294 295 296 296 296 296 296 296 296 297 298 299 299 297 295 293 292 291 289 286 283 281 276 270 264 258 253 247 242 240 238 233 227 220 217 215 212 210 208 205 203 202 202 201 199 197 196 195 194 194 194 194 195 195 195 195 194 193 193 193 193 193 195 196 198 199 200 201 202
278 279 279 280 281 282 284 285 285 286 287 287 288 289 291 293 294 295 295 295 295 295 294 295 296 297 299 299 297 294 292 291 290 289 286 283 281 278 274 268 261 256 250 244 239 237 235 232 227 220 216 214 212 209 207 205 203 202 201 200 199 197 197 196 195 195 194 194 194 195 195 195 194 193 193 193 194 194 196 197 197 199 200 202 203
Height
10498 10493 10488 10483 10478 10473 10467 10461 10455 10450 10444 10439 10433 10427 10421 10416 10409 10403 10397 10390 10384 10379 10372 10366 10358 10351 10344 10337 10331 10323 10316 10308 10300 10293 10286 10278 10270 10263 10256 10250 10243 10236 10228 10220 10211 10203 10198 10190 10183 10175 10170 10167 10164 10158 10156 10154 10153 10151 10150 10151 10154 10158 10161 10164 10175 10177 10165 10162 10174 10179 10182 10190 10198 10208 10219 10229 10239 10247 10257 10270 10282 10294 10308 10324 10339
10485 10481 10475 10471 10466 10461 10455 10448 10443 10437 10431 10426 10421 10415 10409 10403 10397 10391 10385 10378 10372 10367 10360 10353 10346 10339 10332 10325 10318 10310 10302 10294 10286 10279 10272 10264 10256 10248 10241 10235 10228 10220 10212 10205 10196 10188 10182 10176 10169 10162 10155 10152 10148 10144 10141 10140 10139 10139 10137 10137 10140 10143 10146 10150 10158 10162 10152 10147 10157 10163 10166 10174 10184 10193 10203 10215 10225 10232 10241 10255 10267 10277 10292 10309 10323
10473 10468 10463 10458 10453 10448 10442 10436 10430 10424 10419 10413 10409 10403 10397 10391 10385 10379 10373 10367 10361 10355 10348 10341 10334 10327 10320 10313 10305 10297 10289 10281 10273 10265 10258 10250 10242 10234 10227 10219 10212 10205 10197 10188 10180 10173 10167 10161 10155 10149 10143 10138 10133 10129 10128 10126 10124 10126 10125 10124 10127 10130 10132 10137 10143 10146 10138 10133 10142 10151 10153 10161 10172 10179 10189 10202 10211 10216 10227 10241 10252 10261 10275 10291 10305
10460 10455 10450 10445 10440 10434 10428 10423 10417 10412 10406 10401 10396 10390 10384 10378 10372 10367 10361 10355 10349 10343 10335 10328 10321 10314 10307 10300 10292 10284 10275 10267 10259 10252 10244 10236 10228 10221 10213 10204 10196 10188 10181 10172 10164 10157 10151 10146 10141 10136 10131 10125 10119 10116 10114 10112 10111 10113 10113 10112 10115 10117 10119 10124 10129 10129 10124 10122 10130 10139 10142 10150 10160 10166 10175 10190 10199 10203 10213 10226 10236 10246 10260 10276 10291
10447 10443 10437 10431 10426 10420 10415 10409 10404 10399 10393 10388 10383 10377 10371 10365 10360 10354 10348 10343 10337 10330 10323 10316 10309 10302 10295 10287 10279 10270 10261 10253 10246 10238 10230 10223 10215 10207 10198 10190 10181 10172 10165 10157 10150 10143 10137 10132 10128 10125 10120 10112 10107 10104 10101 10099 10099 10100 10100 10100 10103 10105 10107 10111 10114 10114 10112 10112 10118 10127 10134 10141 10149 10154 10163 10176 10184 10190 10201 10214 10223 10233 10248 10263 10278
10434 10429 10424 10418 10412 10407 10402 10396 10391 10385 10380 10375 10369 10363 10358 10352 10346 10341 10336 10331 10325 10317 10310 10303 10296 10289 10281 10273 10265 10256 10247 10239 10232 10225 10218 10211 10203 10194 10185 10175 10166 10158 10150 10143 10136 10130 10123 10118 10115 10113 10109 10101 10096 10093 10089 10088 10088 10087 10088 10089 10090 10093 10094 10097 10099 10100 10101 10102 10107 10117 10125 10131 10137 10143 10152 10163 10170 10178 10189 10201 10210 10222 10237 10252 10265
10420 10415 10409 10404 10399 10394 10388 10383 10378 10372 10367 10362 10356 10350 10345 10339 10334 10329 10324 10319 10312 10304 10297 10290 10283 10276 10268 10259 10251 10242 10234 10226 10219 10213 10207 10199 10190 10181 10172 10162 10152 10143 10135 10128 10122 10115 10109 10103 10100 10099 10096 10089 10084 10081 10078 10077 10077 10075 10076 10077 10079 10081 10082 10083 10086 10088 10090 10093 10098 10108 10115 10119 10124 10131 10140 10151 10159 10167 10178 10189 10198 10208 10224 10239 10251
10405 10400 10394 10389 10385 10380 10375 10370 10365 10360 10354 10349 10343 10338 10332 10327 10321 10316 10312 10306 10298 10291 10284 10278 10271 10263 10255 10246 10237 10229 10220 10213 10207 10201 10195 10187 10179 10170 10160 10149 10139 10130 10122 10114 10106 10101 10097 10091 10085 10084 10084 10078 10073 10070 10068 10067 10066 10064 10064 10066 10067 10069 10070 10071 10074 10075 10078 10083 10088 10096 10104 10109 10115 10121 10130 10140 10148 10156 10166 10176 10183 10193 10208 10223 10235
10390 10385 10380 10375 10371 10366 10361 10357 10352 10347 10342 10336 10330 10325 10319 10314 10309 10304 10299 10292 10285 10278 10271 10265 10258 10251 10243 10234 10224 10216 10208 10201 10195 10189 10183 10175 10167 10158 10148 10137 10128 10119 10112 10104 10094 10090 10088 10083 10075 10071 10070 10067 10062 10059 10058 10056 10055 10053 10053 10055 10056 10058 10059 10060 10062 10064 10067 10073 10079 10085 10092 10098 10105 10111 10119 10129 10138 10146 10155 10163 10169 10180 10195 10209 10221
10375 10370 10365 10361 10357 10352 10348 10344 10339 10334 10329 10323 10318 10312 10307 10302 10296 10291 10285 10279 10272 10265 10258 10251 10245 10238 10230 10221 10212 10203 10196 10189 10183 10176 10169 10162 10155 10146 10135 10124 10114 10106 10100 10090 10081 10078 10077 10072 10067 10061 10058 10056 10052 10049 10047 10046 10045 10042 10043 10045 10046 10046 10047 10049 10050 10053 10058 10064 10068 10074 10082 10087 10093 10099 10108 10119 10129 10137 10144 10152 10159 10171 10186 10199 10211
10360 10355 10351 10347 10342 10338 10334 10330 10326 10321 10316 10310 10305 10300 10294 10289 10283 10277 10272 10265 10258 10251 10244 10238 10232 10225 10217 10208 10199 10191 10183 10177 10171 10164 10156 10149 10142 10133 10122 10112 10102 10094 10086 10074 10066 10067 10065 10059 10056 10051 10047 10044 10041 10038 10037 10036 10035 10033 10032 10035 10036 10036 10036 10038 10040 10044 10049 10054 10058 10064 10071 10077 10082 10089 10098 10109 10118 10125 10131 10139 10148 10161 10175 10188 10200
10346 10341 10337 10332 10328 10324 10320 10316 10312 10307 10302 10297 10292 10287 10281 10276 10271 10265 10259 10252 10244 10237 10230 10223 10218 10211 10204 10196 10187 10178 10171 10164 10157 10151 10144 10137 10129 10120 10109 10099 10090 10082 10073 10059 10053 10056 10054 10047 10044 10041 10036 10033 10030 10027 10026 10025 10025 10024 10023 10024 10026 10026 10026 10028 10030 10035 10040 10044 10048 10055 10061 10066 10071 10079 10088 10098 10105 10111 10118 10126 10137 10151 10165 10178 10189
10332 10327 10323 10318 10314 10311 10306 10302 10298 10294 10289 10284 10279 10274 10269 10264 10258 10252 10245 10238 10231 10224 10216 10210 10204 10198 10191 10184 10174 10165 10157 10151 10144 10138 10131 10124 10117 10108 10097 10087 10078 10070 10059 10046 10042 10045 10042 10037 10034 10030 10025 10022 10019 10017 10016 10016 10015 10014 10014 10015 10016 10017 10017 10019 10022 10026 10030 10035 10040 10046 10051 10055 10060 10069 10078 10086 10092 10098 10106 10116 10129 10142 10156 10169 10181
10319 10314 10309 10305 10301 10297 10293 10288 10284 10280 10275 10271 10266 10261 10256 10252 10246 10239 10232 10225 10217 10210 10203 10197 10191 10185 10178 10171 10162 10152 10144 10137 10130 10123 10117 10111 10104 10095 10085 10076 10067 10057 10044 10033 10032 10034 10030 10026 10024 10019 10014 10011 10008 10007 10007 10006 10005 10005 10004 10005 10007 10008 10008 10010 10013 10016 10021 10026 10031 10036 10041 10045 10051 10059 10067 10074 10080 10087 10096 10108 10121 10136 10149 10163 10175
10306 10300 10295 10291 10287 10283 10279 10275 10270 10266 10262 10258 10254 10249 10244 10239 10233 10226 10218 10211 10205 10198 10191 10184 10178 10172 10165 10159 10150 10140 10131 10124 10116 10109 10102 10096 10090 10082 10075 10066 10055 10043 10030 10021 10021 10022 10019 10015 10014 10009 10004 10000 9997 9997 9998 9997 9996 9995 9995 9996 9998 10000 10000 10000 10003 10007 10011 10016 10021 10027 10033 10037 10043 10050 10057 10065 10072 10080 10090 10102 10115 10129 10144 10157 10169
10291 10286 10281 10277 10273 10269 10265 10261 10257 10253 10250 10246 10241 10237 10232 10226 10220 10212 10205 10198 10192 10186 10179 10172 10166 10159 10152 10146 10139 10129 10119 10111 10104 10096 10089 10082 10076 10070 10064 10057 10045 10032 10019 10011 10010 10010 10007 10005 10004 10000 9994 9990 9987 9987 9989 9989 9987 9985 9986 9988 9990 9992 9992 9991 9995 9999 10002 10006 10011 10018 10024 10028 10033 10040 10048 10057 10065 10074 10085 10096 10109 10124 10138 10150 10161
10277 10272 10267 10263 10259 10255 10252 10248 10244 10241 10237 10234 10229 10224 10219 10214 10207 10199 10192 10185 10179 10174 10168 10160 10154 10148 10140 10134 10127 10118 10108 10099 10091 10083 10076 10069 10062 10057 10053 10048 10037 10023 10011 10003 10000 9999 9997 9995 9993 9990 9985 9980 9978 9977 9979 9980 9978 9975 9977 9980 9981 9983 9983 9983 9987 9992 9994 9998 10003 10010 10015 10019 10025 10033 10041 10050 10059 10068 10079 10091 10103 10116 10129 10141 10153
10263 10258 10254 10250 10245 10241 10238 10234 10231 10228 10225 10221 10216 10211 10206 10200 10194 10187 10180 10173 10167 10162 10157 10149 10141 10135 10128 10121 10115 10107 10097 10087 10078 10071 10063 10055 10048 10044 10042 10038 10028 10014 10003 9995 9990 9988 9987 9985 9984 9981 9976 9971 9969 9968 9970 9971 9968 9967 9969 9971 9973 9974 9973 9975 9980 9985 9987 9991 9997 10003 10008 10013 10020 10028 10037 10046 10055 10065 10076 10087 10097 10108 10121 10134 10147
10249 10245 10240 10236 10231 10228 10225 10221 10218 10215 10212 10208 10203 10197 10193 10187 10181 10175 10168 10162 10156 10151 10146 10139 10130 10123 10116 10109 10103 10095 10085 10076 10067 10059 10051 10042 10034 10031 10030 10027 10018 10006 9995 9987 9981 9978 9977 9975 9974 9972 9967 9962 9960 9960 9961 9961 9959 9958 9960 9963 9963 9964 9965 9969 9974 9978 9981 9986 9993 9999 10003 10009 10016 10025 10034 10043 10052 10062 10073 10082 10090 10102 10116 10128 10141
10235 10230 10226 10222 10218 10215 10211 10207 10204 10201 10197 10194 10190 10184 10180 10175 10169 10163 10156 10150 10145 10140 10135 10128 10121 10113 10105 10098 10090 10082 10074 10066 10056 10048 10040 10030 10022 10018 10017 10013 10007 9998 9988 9979 9972 9969 9967 9966 9965 9963 9959 9954 9952 9952 9953 9952 9951 9950 9952 9953 9953 9955 9959 9963 9967 9970 9974 9980 9987 9993 9998 10005 10013 10023 10032 10040 10048 10058 10066 10075 10085 10097 10110 10122 10135
10221 10216 10212 10208 10205 10201 10197 10193 10190 10187 10183 10180 10177 10172 10168 10163 10157 10151 10144 10138 10133 10128 10124 10117 10111 10103 10095 10088 10080 10071 10063 10056 10047 10039 10030 10019 10010 10006 10003 10000 9995 9989 9981 9972 9964 9960 9959 9957 9955 9954 9950 9947 9946 9945 9944 9943 9942 9941 9943 9944 9946 9949 9954 9957 9959 9963 9969 9974 9979 9985 9991 9999 10008 10019 10027 10035 10042 10050 10058 10068 10080 10091 10102 10115 10127
10206 10202 10198 10195 10191 10188 10184 10179 10176 10172 10169 10166 10164 10160 10156 10151 10145 10139 10132 10127 10122 10117 10112 10106 10099 10093 10086 10077 10069 10060 10053 10046 10038 10030 10021 10011 10002 9995 9990 9986 9983 9979 9974 9966 9956 9951 9951 9949 9947 9944 9942 9939 9939 9938 9936 9935 9934 9934 9936 9938 9940 9945 9949 9951 9953 9958 9964 9969 9973 9979 9986 9994 10003 10012 10019 10027 10035 10042 10050 10061 10073 10083 10094 10107 10119
10192 10189 10185 10182 10179 10174 10170 10166 10162 10158 10156 10153 10150 10147 10142 10138 10133 10127 10121 10116 10111 10106 10101 10094 10088 10082 10076 10067 10058 10049 10043 10036 10028 10020 10012 10003 9995 9986 9978 9974 9971 9967 9965 9959 9950 9944 9942 9941 9938 9936 9934 9932 9932 9931 9929 9927 9927 9928 9930 9933 9935 9939 9943 9945 9948 9953 9959 9963 9969 9975 9983 9991 10000 10006 10012 10019 10026 10033 10042 10054 10065 10075 10087 10099 10110
10178 10174 10171 10168 10165 10160 10156 10153 10149 10145 10143 10139 10136 10133 10129 10124 10120 10114 10109 10105 10100 10095 10089 10083 10078 10072 10065 10058 10048 10039 10033 10027 10018 10010 10002 9994 9986 9977 9969 9964 9960 9957 9955 9951 9944 9937 9935 9933 9930 9928 9926 9925 9925 9924 9922 9921 9922 9923 9924 9927 9929 9933 9936 9938 9941 9947 9952 9958 9964 9970 9979 9988 9995 10001 10007 10013 10018 10025 10035 10047 10057 10068 10080 10091 10101
10164 10160 10157 10154 10150 10146 10143 10140 10136 10133 10130 10126 10123 10119 10115 10110 10105 10100 10096 10092 10087 10083 10078 10073 10067 10061 10055 10049 10039 10030 10024 10018 10009 10000 9992 9985 9977 9969 9960 9955 9951 9947 9946 9943 9937 9931 9928 9925 9923 9921 9919 9918 9918 9917 9915 9915 9916 9917 9919 9921 9923 9925 9927 9930 9935 9941 9948 9953 9957 9963 9973 9982 9988 9994 10001 10007 10014 10023 10033 10044 10054 10064 10075 10085 10094
10151 10148 10145 10141 10137 10133 10131 10127 10124 10120 10116 10113 10110 10106 10102 10097 10091 10086 10082 10078 10074 10071 10067 10062 10057 10051 10045 10040 10031 10020 10012 10007 10000 9991 9984 9978 9971 9962 9954 9947 9941 9937 9935 9934 9930 9925 9921 9918 9916 9914 9912 9912 9911 9910 9909 9909 9911 9912 9914 9916 9917 9919 9921 9925 9929 9935 9942 9948 9953 9959 9967 9974 9980 9987 9995 10004 10015 10024 10034 10043 10051 10060 10070 10080 10089
10140 10136 10133 10128 10124 10122 10119 10115 10112 10108 10104 10100 10097 10093 10089 10084 10078 10073 10068 10065 10062 10058 10054 10050 10046 10041 10036 10030 10022 10011 10001 9995 9990 9984 9976 9971 9964 9956 9948 9942 9935 9929 9926 9923 9921 9918 9915 9911 9909 9908 9906 9905 9904 9903 9903 9904 9906 9907 9909 9911 9913 9915 9917 9921 9926 9931 9937 9943 9949 9955 9961 9966 9974 9982 9992 10003 10013 10021 10030 10039 10047 10056 10066 10075 10085
10128 10124 10119 10115 10112 10110 10107 10103 10100 10097 10092 10088 10084 10080 10076 10071 10066 10060 10055 10052 10049 10046 10042 10039 10035 10031 10026 10021 10013 10003 9992 9985 9980 9974 9969 9964 9959 9950 9942 9936 9930 9924 9919 9915 9912 9910 9908 9905 9902 9901 9900 9899 9898 9898 9898 9899 9901 9903 9904 9906 9909 9911 9914 9917 9922 9927 9932 9937 9943 9949 9955 9962 9971 9980 9989 9998 10007 10016 10026 10035 10044 10053 10062 10071 10081
10114 10110 10106 10102 10100 10098 10096 10092 10089 10085 10081 10077 10072 10067 10062 10058 10053 10048 10044 10040 10037 10034 10031 10028 10024 10021 10016 10011 10004 9996 9986 9978 9971 9964 9959 9956 9951 9943 9936 9930 9925 9919 9914 9909 9904 9902 9901 9898 9896 9895 9894 9893 9893 9892 9893 9895 9897 9898 9900 9902 9904 9907 9910 9914 9918 9922 9926 9932 9938 9943 9950 9958 9967 9977 9985 9994 10003 10013 10023 10032 10040 10049 10058 10066 10078
10098 10095 10092 10089 10087 10086 10084 10081 10078 10074 10070 10066 10060 10054 10049 10044 10039 10034 10031 10028 10025 10022 10019 10016 10013 10009 10006 10001 9994 9985 9976 9969 9962 9954 9948 9945 9940 9932 9926 9922 9917 9912 9908 9903 9898 9895 9894 9891 9890 9889 9888 9887 9887 9887 9888 9890 9892 9894 9896 9898 9900 9903 9907 9912 9916 9920 9924 9930 9935 9941 9947 9954 9964 9974 9983 9992 10000 10009 10018 10027 10035 10044 10053 10063 10075
10083 10080 10077 10075 10074 10073 10071 10069 10066 10062 10058 10054 10049 10044 10038 10032 10026 10020 10016 10013 10011 10010 10008 10005 10001 9998 9995 9991 9984 9975 9964 9957 9951 9944 9939 9935 9931 9923 9916 9911 9907 9904 9901 9896 9891 9888 9887 9885 9884 9883 9882 9882 9882 9882 9883 9885 9888 9889 9892 9894 9896 9899 9903 9908 9914 9918 9922 9927 9934 9941 9947 9954 9962 9971 9980 9988 9996 10004 10014 10023 10031 10041 10052 10063 10075
10069 10066 10063 10061 10060 10059 10057 10055 10053 10049 10046 10042 10037 10032 10027 10021 10016 10011 10006 10002 9998 9996 9994 9992 9989 9986 9983 9979 9974 9966 9956 9948 9941 9935 9930 9926 9921 9914 9909 9905 9899 9894 9892 9889 9884 9881 9880 9879 9878 9877 9876 9876 9877 9877 9878 9881 9883 9885 9887 9890 9892 9895 9899 9904 9910 9915 9919 9924 9930 9938 9946 9954 9961 9969 9976 9984 9993 10001 10011 10021 10031 10042 10053 10063 10074
10056 10053 10050 10047 10046 10044 10042 10041 10038 10035 10032 10028 10023 10019 10014 10009 10004 10000 9996 9993 9989 9985 9982 9979 9976 9974 9971 9967 9961 9954 9946 9938 9931 9925 9921 9917 9912 9904 9900 9899 9894 9887 9882 9880 9877 9875 9874 9873 9872 9871 9870 9871 9872 9872 9873 9876 9879 9881 9883 9886 9888 9891 9895 9900 9905 9911 9917 9922 9927 9933 9941 9950 9958 9966 9974 9982 9990 10000 10010 10021 10032 10042 10051 10061 10072
10044 10041 10037 10034 10032 10030 10028 10026 10023 10020 10017 10013 10009 10005 10000 9995 9991 9986 9982 9980 9977 9974 9971 9967 9963 9960 9957 9953 9948 9942 9934 9926 9920 9914 9912 9910 9904 9896 9891 9890 9888 9882 9875 9871 9870 9868 9867 9866 9865 9865 9865 9865 9866 9868 9869 9871 9874 9876 9879 9881 9884 9887 9891 9896 9901 9907 9914 9920 9926 9932 9938 9945 9954 9963 9971 9979 9989 9998 10009 10021 10031 10040 10049 10060 10070
10030 10027 10024 10022 10019 10017 10014 10012 10009 10006 10004 10000 9996 9992 9987 9982 9978 9974 9970 9966 9963 9960 9957 9954 9951 9947 9944 9940 9935 9929 9923 9917 9910 9906 9904 9903 9897 9888 9881 9879 9878 9875 9870 9865 9862 9861 9861 9860 9859 9859 9859 9860 9861 9863 9864 9867 9869 9872 9874 9877 9880 9884 9888 9892 9897 9903 9910 9917 9924 9930 9937 9944 9951 9959 9967 9976 9987 9997 10007 10019 10029 10038 10048 10058 10068
10016 10013 10012 10010 10007 10005 10002 9999 9996 9993 9991 9987 9983 9979 9974 9970 9966 9963 9959 9955 9951 9948 9944 9941 9938 9937 9935 9930 9924 9918 9912 9907 9900 9896 9895 9894 9889 9881 9874 9870 9868 9866 9862 9858 9855 9854 9854 9854 9854 9853 9854 9855 9856 9858 9860 9862 9865 9868 9871 9874 9877 9881 9884 9888 9893 9900 9907 9914 9921 9928 9936 9943 9950 9957 9964 9974 9985 9995 10005 10016 10026 10035 10044 10055 10065
10003 10000 10000 9998 9995 9993 9990 9986 9983 9981 9978 9974 9970 9966 9962 9958 9954 9951 9948 9944 9940 9936 9932 9928 9925 9924 9923 9921 9915 9907 9900 9893 9889 9886 9884 9883 9880 9875 9868 9863 9860 9858 9854 9851 9849 9848 9848 9848 9848 9848 9848 9850 9851 9853 9855 9858 9860 9863 9867 9870 9873 9877 9881 9885 9890 9896 9903 9910 9918 9926 9934 9941 9947 9955 9963 9973 9983 9992 10002 10012 10022 10031 10040 10051 10061
9990 9989 9988 9986 9983 9981 9977 9973 9970 9968 9965 9961 9957 9953 9949 9946 9942 9939 9936 9933 9929 9925 9921 9916 9913 9911 9909 9908 9904 9898 9890 9882 9877 9875 9874 9872 9869 9865 9860 9855 9852 9850 9847 9844 9842 9841 9842 9842 9842 9842 9843 9845 9846 9848 9851 9853 9856 9859 9863 9866 9870 9874 9878 9882 9887 9893 9899 9907 9915 9923 9930 9938 9945 9953 9962 9971 9980 9990 9999 10009 10018 10027 10036 10046 10056
9980 9978 9977 9974 9971 9968 9963 9960 9957 9954 9951 9948 9944 9940 9937 9933 9930 9927 9924 9921 9918 9914 9909 9905 9902 9899 9897 9895 9893 9888 9882 9874 9868 9864 9863 9861 9858 9855 9851 9847 9844 9842 9839 9837 9835 9835 9835 9836 9836 9836 9837 9839 9842 9843 9846 9849 9852 9855 9859 9863 9866 9870 9875 9880 9884 9890 9896 9904 9911 9919 9927 9935 9943 9952 9961 9970 9978 9987 9996 10005 10014 10023 10032 10042 10054
9970 9968 9965 9963 9959 9955 9951 9947 9944 9941 9939 9935 9931 9928 9924 9921 9918 9916 9913 9910 9906 9902 9898 9894 9892 9889 9887 9884 9881 9877 9872 9867 9861 9857 9854 9852 9849 9846 9843 9840 9836 9834 9832 9830 9829 9829 9829 9830 9830 9831 9832 9834 9836 9839 9841 9844 9847 9851 9855 9859 9863 9868 9872 9877 9881 9887 9893 9900 9908 9915 9924 9933 9941 9950 9959 9967 9975 9983 9992 10002 10011 10020 10030 10042 10055
9959 9956 9954 9950 9946 9942 9939 9936 9932 9930 9927 9923 9920 9916 9912 9909 9906 9904 9901 9899 9895 9890 9887 9884 9881 9879 9877 9874 9869 9864 9861 9857 9854 9850 9847 9844 9840 9837 9835 9832 9829 9827 9825 9823 9822 9822 9823 9824 9824 9825 9826 9828 9831 9834 9836 9839 9843 9847 9851 9855 9860 9865 9870 9874 9879 9884 9890 9897 9904 9912 9921 9930 9938 9946 9955 9964 9971 9980 9990 10000 10009 10018 10029 10041 10052
9946 9943 9940 9937 9933 9930 9927 9924 9921 9919 9915 9912 9908 9904 9900 9897 9895 9892 9889 9887 9883 9879 9876 9873 9871 9869 9866 9862 9858 9853 9849 9847 9845 9842 9839 9836 9832 9829 9827 9824 9821 9820 9818 9816 9816 9816 9817 9818 9819 9819 9821 9823 9826 9829 9832 9835 9838 9842 9846 9850 9856 9861 9866 9872 9877 9882 9888 9894 9901 9908 9917 9926 9934 9942 9951 9959 9967 9977 9987 9997 10006 10016 10026 10036 10047
9931 9928 9925 9922 9919 9916 9914 9911 9909 9906 9903 9899 9895 9891 9888 9886 9883 9880 9877 9874 9870 9867 9865 9863 9862 9859 9855 9850 9846 9842 9839 9836 9834 9832 9830 9827 9823 9821 9819 9816 9814 9812 9811 9809 9809 9809 9810 9812 9813 9814 9816 9818 9821 9824 9827 9830 9834 9838 9842 9846 9851 9856 9862 9869 9875 9880 9886 9892 9898 9905 9913 9921 9929 9938 9947 9955 9964 9974 9984 9993 10002 10012 10021 10031 10041
9917 9914 9911 9908 9906 9903 9901 9899 9896 9893 9889 9885 9882 9879 9876 9874 9871 9868 9865 9861 9858 9856 9855 9854 9852 9848 9843 9838 9835 9831 9828 9826 9824 9821 9820 9817 9815 9812 9811 9808 9807 9805 9804 9803 9802 9802 9804 9806 9807 9808 9810 9813 9816 9819 9822 9826 9830 9834 9838 9842 9847 9852 9858 9864 9871 9878 9884 9890 9897 9903 9910 9917 9925 9934 9943 9952 9962 9972 9981 9989 9998 10007 10017 10026 10034
9903 9900 9898 9896 9894 9893 9890 9887 9884 9880 9876 9872 9869 9867 9864 9862 9859 9856 9852 9849 9847 9846 9845 9844 9841 9836 9831 9827 9824 9821 9818 9816 9814 9811 9809 9807 9805 9804 9802 9800 9799 9798 9797 9796 9795 9796 9797 9800 9801 9803 9805 9808 9811 9814 9818 9821 9825 9829 9833 9837 9842 9848 9853 9860 9867 9875 9881 9888 9895 9901 9907 9913 9921 9930 9939 9949 9959 9968 9977 9985 9993 10002 10011 10020 10029
9890 9888 9886 9885 9884 9881 9878 9875 9871 9867 9864 9860 9858 9855 9853 9850 9847 9843 9839 9838 9837 9836 9835 9832 9829 9824 9820 9817 9813 9810 9808 9806 9803 9801 9800 9797 9795 9794 9794 9792 9791 9791 9790 9789 9788 9789 9791 9793 9795 9797 9799 9802 9806 9809 9813 9816 9821 9825 9829 9833 9838 9843 9849 9855 9862 9870 9878 9885 9892 9898 9904 9911 9919 9927 9936 9945 9955 9965 9973 9981 9989 9997 10006 10015 10024
9878 9877 9875 9874 9872 9869 9866 9862 9858 9855 9852 9849 9846 9844 9841 9838 9834 9830 9828 9827 9827 9825 9823 9820 9816 9813 9809 9806 9803 9801 9798 9795 9793 9792 9790 9788 9786 9785 9785 9784 9783 9783 9783 9782 9782 9782 9784 9787 9789 9791 9793 9796 9800 9804 9808 9812 9816 9820 9824 9828 9833 9838 9844 9850 9857 9865 9873 9881 9888 9895 9901 9909 9916 9924 9933 9942 9952 9961 9969 9977 9985 9994 10002 10010 10019
9866 9865 9863 9862 9859 9856 9853 9850 9846 9843 9840 9838 9835 9832 9828 9824 9821 9819 9818 9817 9816 9813 9811 9808 9805 9802 9799 9797 9795 9792 9788 9784 9783 9782 9780 9779 9777 9776 9776 9776 9775 9774 9775 9776 9775 9776 9777 9780 9783 9785 9787 9790 9795 9799 9802 9807 9811 9815 9819 9824 9829 9834 9840 9846 9853 9860 9868 9876 9884 9891 9898 9905 9913 9921 9929 9938 9947 9956 9965 9973 9980 9989 9997 10006 10014
9853 9852 9850 9848 9846 9843 9840 9837 9834 9831 9828 9825 9822 9819 9815 9812 9811 9810 9808 9806 9803 9800 9798 9795 9793 9791 9789 9787 9785 9782 9778 9775 9774 9772 9771 9769 9768 9767 9767 9768 9767 9767 9768 9768 9769 9769 9771 9773 9777 9779 9781 9784 9789 9793 9797 9801 9805 9810 9815 9819 9824 9830 9836 9842 9848 9855 9863 9871 9878 9886 9893 9901 9909 9917 9926 9934 9943 9951 9960 9968 9976 9985 9993 10001 10009
9839 9838 9836 9834 9832 9829 9827 9824 9822 9819 9816 9813 9809 9806 9803 9802 9801 9799 9797 9794 9791 9788 9785 9784 9782 9781 9779 9778 9775 9772 9769 9766 9765 9763 9761 9760 9759 9758 9759 9759 9759 9759 9760 9761 9762 9763 9764 9766 9770 9773 9775 9778 9782 9787 9792 9796 9800 9804 9809 9814 9819 9825 9831 9837 9844 9850 9857 9865 9873 9881 9888 9896 9904 9912 9921 9929 9938 9946 9954 9963 9972 9981 9989 9997 10004
9826 9824 9822 9820 9817 9815 9813 9811 9808 9806 9803 9800 9797 9795 9793 9792 9790 9788 9785 9781 9778 9776 9774 9772 9771 9771 9770 9767 9765 9762 9759 9757 9756 9754 9752 9751 9750 9750 9750 9751 9751 9751 9752 9753 9755 9756 9757 9759 9763 9766 9769 9772 9776 9780 9786 9791 9795 9799 9804 9809 9814 9820 9826 9833 9839 9846 9852 9859 9867 9875 9882 9891 9899 9907 9915 9924 9932 9941 9949 9958 9966 9975 9984 9992 9998